Satellite-Ground Cal/Val Site Overpasses Predictions

Prediction of Satellite NPP Overpassing Cal/Val Site: Antarctic Dome C

Ground Cal/Val Site Location: Latitude: -75.10, Longitude: 123.35; Satellite-Ground Site NADIR distance within 100 km.

Table of predicted overpasses for the next 14.0 days since TLE Epoch: 3/4/2016
Interval Starting Time Ending Time Minimum Distance Time Minimum Distance (km)
1 03/05/2016 14:43:30 03/05/2016 14:43:55 03/05/2016 14:43:43 54.45
2 03/06/2016 07:45:10 03/06/2016 07:45:30 03/06/2016 07:45:20 70.94
3 03/07/2016 07:26:17 03/07/2016 07:26:44 03/07/2016 07:26:31 37.21
4 03/09/2016 15:08:40 03/09/2016 15:08:51 03/09/2016 15:08:46 92.23
5 03/10/2016 14:49:40 03/10/2016 14:50:09 03/10/2016 14:49:54 19.01
6 03/12/2016 07:32:29 03/12/2016 07:32:58 03/12/2016 07:32:43 1.89
7 03/15/2016 14:55:52 03/15/2016 14:56:21 03/15/2016 14:56:07 17.32
8 03/16/2016 14:37:11 03/16/2016 14:37:23 03/16/2016 14:37:17 89.67
9 03/17/2016 07:38:41 03/17/2016 07:39:08 03/17/2016 07:38:55 35.36
